Overview Statistics Trail Chart Weather Telemetry Raw packets
 

This is the latest recevied weather packets stored in our database for station/object ED3YAB-7. If no packets are shown the sender has not sent any weather packets the latest 10 day(s).

<< 14 15 16 17 18 19 20 >>
Time Temp. Humidity Pressure Rain* Wind** Luminosity Snow
1777828648 17.22° C 51% 1019.1 hPa - - - -
1777827448 17.78° C 53% 1019.2 hPa - - - -
1777826248 16.67° C 57% 1019.1 hPa - - - -
1777825048 16.67° C 57% 1019.1 hPa - - - -
1777823855 17.22° C 55% 1019 hPa - - - -
1777823848 17.22° C 55% 1019 hPa - - - -
1777822647 17.78° C 52% 1019.1 hPa - - - -
1777821455 17.78° C 51% 1019.1 hPa - - - -
1777821447 17.78° C 51% 1019.1 hPa - - - -
1777820247 18.33° C 50% 1019 hPa - - - -
1777819054 18.89° C 48% 1019.1 hPa - - - -
1777817854 19.44° C 46% 1019.4 hPa - - - -
1777817847 19.44° C 46% 1019.4 hPa - - - -
1777816647 20.56° C 44% 1019.9 hPa - - - -
1777815458 23.89° C 39% 1020.2 hPa - - - -
1777815446 23.89° C 39% 1020.2 hPa - - - -
1777814254 19.44° C 44% 1020.6 hPa - - - -
1777814246 19.44° C 44% 1020.6 hPa - - - -
1777813057 20.56° C 44% 1021 hPa - - - -
1777813046 20.56° C 44% 1021 hPa - - - -
1777811846 19.44° C 46% 1021 hPa - - - -
1777810653 21.67° C 42% 1021 hPa - - - -
1777810646 21.67° C 42% 1021 hPa - - - -
1777809454 22.22° C 41% 1021.3 hPa - - - -
1777809446 22.22° C 41% 1021.3 hPa - - - -

* Rain since midnight (hover to see other rain measurements)
** Current wind speed in m/s (hover to see current wind gust speed)